{"data":{"norad_id":65575,"epoch":"2026-05-25T03:30:39.735072Z","epoch_age_seconds":52484,"freshness":"FRESH","line1":"1 65575U 25203L   26145.14629323  .00000144  00000+0  11680-3 0  9995","line2":"2 65575  81.3048  31.8867 0008274 255.3376 104.6864 13.85035224 35526","mean_motion":13.85035224,"eccentricity":0.0008274,"inclination_deg":81.3048,"raan_deg":31.8867,"arg_perigee_deg":255.3376,"mean_anomaly_deg":104.6864,"bstar":0.0001168,"rev_number":3552,"period_min":103.96847495627,"perigee_km":940.02150499335,"apogee_km":952.14162187211,"semimajor_km":7324.2185634327,"source":"CELESTRAK","updated_at":"2026-05-25T13:38:25.170246Z"}}